User: anonymous   Login
Location: Pilipovskiye Korichintsy
(49.1833°N, 27.4667°E)
Time: 08:54:41
(UTC+00:00)
Language:

CZ-2D R/B - Orbit

View from above orbital plane
View from above orbital plane
View from above satellite
View from above satellite

Ground track
Ground track

The orbit data is extracted from the following two-line orbital elements,

1 37932U 11068C   20265.81493816  .00000007  00000-0  22555-4 0  9995
2 37932  98.6606 200.2743 0036895 184.1972 228.9487 14.22044058458795
Epoch (UTC): 21 September 2020 19:33:30
Eccentricity: 0.0036895
inclination: 98.6606°
perigee height: 792 km
apogee height: 845 km
right ascension of ascending node: 200.2743°
argument of perigee: 184.1972°
revolutions per day: 14.22044058
mean anomaly at epoch: 228.9487°
orbit number at epoch: 45879

The dashed part of the orbit path shows where the satellite is in the earth's shadow,  

DLR